GEFSMA_con_probscp_348.txt.gz
Probability
0 0 0 1 2 1 0 0 1 0 0 1 1 1 3 5 6 5 5 7 8 7 6 6 6 4 2 0 0 0 1 3 4 5 6 6 4 1 0 1 2 3 3
0 0 0 1 1 1 0 0 1 0 1 2 3 3 5 5 4 3 3 5 7 7 6 6 6 5 3 2 0 0 0 1 3 4 5 6 4 1 0 0 1 3 3
0 0 0 0 0 0 0 1 1 1 1 2 3 4 4 3 2 1 1 3 5 5 4 5 6 6 5 4 2 1 0 1 2 4 4 4 3 1 1 0 1 2 2
0 0 0 0 1 1 2 3 3 2 2 2 1 1 2 1 1 0 0 1 1 2 2 3 4 5 5 5 4 2 1 1 3 4 5 5 4 3 2 1 0 1 1
1 0 0 1 2 2 3 3 3 3 3 2 1 1 1 1 1 0 0 0 0 0 1 1 2 4 6 6 5 4 3 3 4 5 7 8 8 7 5 2 1 1 1
2 2 2 3 3 3 3 3 3 3 3 2 2 1 1 2 2 1 1 1 1 1 0 1 2 3 5 7 6 5 5 5 6 8 10 11 10 9 7 4 2 2 1
2 4 5 5 4 3 3 3 3 3 3 2 1 1 1 1 2 2 2 2 2 1 0 1 1 1 2 4 5 4 4 5 7 8 9 9 8 7 6 4 2 1 1
3 4 5 5 4 3 4 3 3 3 3 2 2 2 2 1 2 3 3 2 1 0 0 0 0 0 0 1 3 4 3 3 5 5 5 5 4 3 3 3 3 1 1
3 4 4 4 4 4 5 4 3 3 4 5 4 3 3 3 3 3 2 1 0 0 0 0 0 0 0 2 3 3 3 3 4 5 5 4 2 2 2 3 3 1 1
4 5 5 5 5 5 6 5 4 4 6 7 5 4 3 3 3 3 2 1 1 0 0 0 0 0 1 2 3 3 3 4 6 8 8 6 4 3 3 3 2 1 1
5 5 5 6 6 6 7 6 5 5 7 8 7 5 4 4 4 4 3 2 1 0 0 0 0 0 0 2 3 3 3 4 6 7 8 8 7 4 3 3 3 2 1
4 4 5 6 6 7 7 7 6 5 6 8 8 6 5 5 5 5 4 2 1 0 0 0 0 0 0 1 2 3 3 4 5 5 6 8 7 5 4 3 3 3 3
5 5 5 6 6 7 7 8 8 7 7 8 8 6 6 7 6 6 5 2 0 0 0 0 0 0 0 1 2 4 4 3 3 3 4 5 5 4 4 4 2 3 5
8 8 7 7 7 7 8 10 10 9 9 10 10 9 8 8 7 6 5 3 1 1 0 0 0 0 0 1 2 4 3 2 2 1 1 1 1 2 3 3 1 2 3
10 11 10 8 8 9 11 12 12 11 11 11 11 11 10 9 8 6 4 4 3 2 1 0 0 0 1 1 2 2 2 2 1 0 0 0 0 0 1 2 1 0 1
11 12 12 10 10 11 12 12 12 11 10 10 11 12 11 11 11 8 5 5 5 5 2 1 1 1 2 2 2 1 1 1 1 0 0 0 0 0 0 0 0 0 0
13 13 13 12 13 14 13 11 11 10 10 10 11 12 12 12 12 10 7 6 6 6 4 3 2 2 3 3 3 2 1 1 0 0 0 0 0 0 0 0 0 0 0
16 16 16 16 16 16 14 12 11 10 10 10 11 12 11 11 10 8 7 6 6 6 4 3 3 3 3 3 3 3 2 1 0 0 0 0 0 0 0 0 0 0 0
17 18 19 19 19 17 15 14 13 12 10 8 9 11 10 8 7 5 5 6 6 5 4 3 3 3 3 3 3 2 2 1 0 0 0 0 0 0 0 0 0 0 0
18 19 19 20 19 18 17 16 14 11 8 6 6 9 9 7 4 4 3 5 5 4 3 3 3 3 2 2 1 1 1 0 0 1 1 1 1 0 0 0 0 0 0
17 17 18 20 20 18 17 15 12 9 7 4 4 5 6 5 3 3 3 4 5 5 4 4 3 2 1 0 0 0 0 0 0 1 2 2 1 0 0 0 0 0 0
16 16 18 20 19 16 13 11 9 8 6 4 3 3 3 3 2 1 2 4 6 7 6 5 3 2 0 0 0 0 0 0 0 1 2 2 1 0 0 0 0 0 0
15 14 15 17 17 14 11 8 8 8 6 4 2 2 2 2 1 1 1 3 5 7 7 6 4 2 1 0 0 0 0 0 0 0 1 1 0 0 0 0 0 0 0
15 13 13 14 14 12 9 7 6 7 6 4 3 3 2 2 2 2 2 3 5 6 6 4 3 2 1 0 0 0 0 0 0 0 0 0 0 0 0 0 0 0 0
17 14 12 12 11 9 8 5 4 6 6 4 3 2 2 2 3 3 3 3 4 5 4 3 3 2 1 0 0 0 0 0 0 0 0 0 0 0 0 0 0 0 0
18 15 12 10 8 8 7 5 4 5 5 5 3 2 2 3 3 3 3 3 4 4 4 3 3 1 0 0 0 0 0 0 0 0 0 0 0 0 0 0 0 0 0

GEFSMA_con_probscp_354.txt.gz
Probability
0 0 0 0 0 0 0 0 1 2 1 0 0 1 3 3 2 2 3 4 4 2 1 2 3 4 4 2 1 0 0 0 1 2 3 3 2 3 5 7 6 4 3
0 0 0 0 0 0 0 0 1 1 1 0 0 1 2 2 1 1 2 3 3 3 2 2 3 3 3 2 1 0 0 1 2 3 3 3 2 2 3 4 4 4 3
0 0 0 0 0 0 0 0 0 0 0 0 0 1 1 1 0 1 2 3 3 2 2 2 1 1 1 1 1 0 0 2 4 4 4 4 3 2 1 2 2 3 2
0 0 0 0 0 0 0 0 0 0 0 0 1 1 0 0 0 2 3 2 1 1 1 1 1 1 1 1 1 1 2 4 7 7 6 6 5 4 3 2 2 2 1
0 0 0 0 0 0 0 0 0 1 1 1 2 2 1 1 1 1 2 1 0 0 0 0 0 1 1 2 4 5 5 6 8 8 7 8 7 6 5 4 3 3 3
0 0 0 0 0 0 0 1 1 2 2 3 3 3 3 3 2 2 2 1 0 0 0 0 0 0 2 3 5 6 7 8 8 8 9 10 9 7 6 4 4 4 4
0 0 0 0 1 1 1 2 3 4 4 4 4 4 3 3 3 2 2 1 0 0 0 0 0 0 1 2 2 3 6 8 9 10 12 12 11 10 8 6 5 5 4
0 0 1 2 4 3 3 4 5 5 5 5 6 6 4 2 1 1 1 1 0 0 0 0 0 0 0 0 0 1 4 7 9 10 10 10 11 11 10 9 8 8 8
2 2 4 5 5 5 4 4 6 6 7 7 8 8 5 3 2 1 1 1 0 0 0 0 0 1 1 0 0 0 2 4 6 7 7 8 8 8 9 9 9 10 12
4 5 5 5 4 4 3 4 6 7 8 9 9 9 8 6 5 3 2 1 0 0 0 0 0 0 1 2 2 1 2 2 2 3 4 6 7 7 8 8 7 8 11
5 4 3 3 3 3 3 4 5 6 8 9 9 10 9 8 7 5 3 1 1 0 0 0 0 0 1 2 3 2 1 1 0 0 1 3 5 7 8 7 5 6 7
4 2 1 1 1 3 3 3 4 5 6 8 9 9 9 7 7 6 5 4 2 1 0 0 0 0 1 2 2 1 0 0 0 0 0 1 2 5 6 6 5 4 5
5 4 3 2 2 3 3 3 4 6 7 8 10 9 8 7 6 6 7 7 5 2 1 1 0 0 0 0 0 0 0 0 0 0 0 0 0 1 3 4 3 2 3
6 6 5 5 5 4 4 4 5 7 8 9 10 9 8 7 7 8 9 9 8 6 3 2 0 0 0 0 0 0 1 0 0 0 0 0 0 0 1 2 1 1 1
4 5 6 7 7 6 6 6 7 8 8 9 10 9 7 8 9 9 9 10 9 8 5 2 0 0 0 0 0 0 0 0 0 0 0 0 0 0 1 1 1 0 0
4 6 7 9 9 8 7 8 9 10 10 10 9 8 7 7 8 9 9 9 9 7 5 1 0 0 0 1 1 1 1 1 1 0 0 0 0 0 0 0 0 0 0
5 8 11 12 11 10 9 9 10 11 11 11 9 8 7 7 8 8 8 8 7 7 5 2 0 0 1 2 2 2 2 2 2 1 0 0 0 0 0 0 0 0 0
4 8 12 12 12 12 11 10 10 12 12 11 10 8 7 7 8 7 6 5 6 6 6 3 1 1 2 3 3 3 3 3 2 1 0 0 1 1 0 0 0 0 0
5 7 9 10 11 13 13 14 14 13 12 11 11 10 8 8 8 7 6 4 4 6 6 4 3 3 3 3 3 3 3 3 1 0 0 0 1 2 1 0 0 0 0
10 10 9 10 11 12 14 15 16 14 12 12 11 10 10 9 8 7 7 5 5 5 5 4 3 3 3 3 3 3 3 2 1 0 0 1 2 3 2 1 0 0 0
14 13 12 12 12 12 11 11 12 12 11 11 10 9 9 8 6 5 6 6 4 4 4 3 3 3 3 3 3 3 3 2 0 0 1 1 2 2 2 1 0 0 0
14 14 14 13 12 10 8 6 7 9 9 9 8 7 7 6 4 3 3 2 2 2 3 4 4 4 4 4 3 3 2 1 0 0 0 1 1 1 1 1 0 0 0
14 14 14 13 11 9 6 3 3 6 6 6 6 6 6 5 4 2 1 0 0 1 2 4 6 5 5 4 3 1 1 1 0 0 0 0 0 0 0 0 0 0 0
16 16 16 14 11 8 4 1 1 3 5 6 6 7 7 6 4 2 1 1 0 0 1 3 4 4 4 4 3 1 0 0 0 0 0 0 0 0 0 0 0 0 0
17 16 15 13 10 7 3 0 1 3 5 7 8 8 7 6 5 2 2 2 1 1 1 1 1 2 2 2 2 1 0 0 0 0 0 0 0 0 0 0 0 0 0
16 14 11 10 8 5 2 1 1 3 6 8 9 9 8 7 5 2 2 2 1 2 2 1 0 1 1 1 1 0 0 0 0 0 0 0 0 0 0 0 0 0 0

GEFSMA_con_probscp_360.txt.gz
Probability
4 4 4 2 1 1 2 2 2 1 0 0 0 0 0 0 1 2 3 6 7 7 4 2 2 4 5 5 4 4 5 7 6 4 1 1 2 3 4 5 4 4 3
6 5 4 4 3 2 3 3 2 0 0 0 0 0 0 0 0 2 3 4 6 7 8 6 5 4 5 5 4 3 4 6 6 4 2 2 2 2 3 4 5 4 3
6 5 5 6 5 4 4 4 2 1 0 0 0 0 0 0 2 3 3 3 4 6 10 10 7 5 5 4 2 2 4 7 8 7 6 5 5 5 6 7 6 5 4
5 6 7 7 7 5 4 3 2 1 1 0 0 0 0 1 4 4 4 4 4 5 8 9 8 7 5 4 4 4 5 7 10 11 10 9 9 10 10 10 8 6 4
6 8 9 8 7 6 5 3 2 2 2 1 0 0 0 2 4 5 6 6 5 5 6 7 8 8 6 6 6 7 7 8 10 12 12 11 11 11 10 10 8 7 6
7 8 8 7 6 6 6 5 4 5 4 2 1 1 1 3 5 7 8 8 6 6 6 6 6 6 6 7 7 7 8 10 10 10 11 11 10 9 9 8 9 9 8
8 7 7 7 7 7 8 8 8 7 4 3 3 3 3 4 6 9 10 8 5 4 4 4 4 5 6 7 6 6 7 9 9 9 10 10 10 8 7 8 9 9 9
9 8 8 8 9 9 9 9 8 7 5 4 3 4 4 5 7 9 10 8 5 3 2 3 4 5 6 5 6 6 6 6 7 8 9 10 9 8 7 8 8 8 9
8 8 9 10 9 9 9 7 6 6 6 5 5 5 5 5 7 9 10 8 6 4 2 1 2 3 3 4 5 7 7 6 5 7 8 8 8 7 7 8 8 8 7
9 9 10 11 10 10 10 9 8 8 8 8 8 9 7 7 7 9 10 9 7 5 3 2 2 2 2 4 7 7 7 6 5 5 6 6 7 7 7 8 9 8 8
9 10 11 12 14 15 15 15 14 13 12 13 14 14 11 9 9 9 10 11 9 6 4 3 3 3 2 5 8 7 5 4 3 2 2 2 4 5 6 7 8 8 9
8 9 11 12 15 17 18 18 17 17 18 20 21 20 17 13 12 12 11 11 10 7 5 5 4 3 3 5 7 6 4 3 1 0 0 0 1 2 2 4 6 7 7
5 7 9 11 13 15 17 18 20 21 23 25 26 26 24 20 17 16 15 13 11 8 7 6 4 3 2 3 5 4 3 1 0 0 0 0 0 0 0 2 3 4 5
4 6 9 11 13 15 17 20 23 25 27 28 29 29 28 25 24 23 22 19 16 13 10 9 7 4 2 2 3 3 2 1 0 0 0 0 0 0 0 0 1 2 2
7 9 12 14 15 17 20 22 24 26 28 28 28 28 28 27 28 28 27 24 22 20 16 14 11 6 3 4 3 2 3 2 1 0 0 0 0 0 0 0 0 0 1
14 15 17 18 17 18 21 23 24 25 26 26 26 26 26 26 27 26 25 24 23 23 20 17 13 8 6 6 4 3 4 4 2 0 0 0 0 0 0 0 0 0 0
23 23 23 21 19 19 22 24 24 23 24 24 24 25 25 25 25 24 24 23 23 23 21 17 13 9 7 7 6 6 5 4 3 1 0 0 0 0 0 0 0 0 0
28 28 27 26 24 24 25 26 24 22 23 23 23 24 25 25 24 24 24 23 22 21 19 16 12 9 7 7 7 7 6 5 4 2 0 0 0 0 0 0 0 0 0
27 29 30 30 30 29 29 28 26 23 23 24 23 23 23 23 22 22 22 21 20 19 18 15 10 8 6 6 7 6 5 6 5 3 1 0 0 0 0 0 0 0 0
25 27 30 30 30 30 30 29 27 25 24 24 23 22 22 21 20 20 20 18 17 16 16 12 8 5 4 5 7 6 6 7 7 4 3 2 1 1 1 0 0 0 0
21 23 26 27 28 27 26 25 25 24 24 23 22 21 21 20 19 17 14 13 13 13 12 10 7 5 5 7 8 7 7 8 9 7 6 5 5 4 3 1 1 0 0
20 21 21 23 24 24 20 18 19 21 22 21 20 18 18 17 15 11 7 6 8 8 8 8 7 8 10 11 11 8 7 9 9 9 9 8 7 8 6 3 1 0 0
22 21 20 20 22 20 15 11 12 15 17 18 18 17 16 14 11 9 5 4 4 5 6 7 8 10 13 15 13 11 10 10 10 10 9 8 8 9 8 4 1 0 0
24 23 21 21 21 18 12 8 8 11 13 13 14 15 15 13 11 9 8 6 5 5 6 7 8 10 12 13 12 12 12 11 10 9 8 7 7 8 7 5 2 0 0
25 23 22 22 20 17 11 6 6 10 12 11 11 12 13 12 9 8 9 9 8 8 7 7 7 8 8 7 7 9 11 11 10 9 8 7 7 7 8 7 3 0 0
25 24 24 22 20 17 11 5 6 10 12 12 12 12 11 9 7 6 8 10 11 10 7 6 6 5 4 3 3 6 9 10 10 9 9 9 8 7 8 9 5 1 0

GEFSMA_con_probscp_366.txt.gz
Probability
4 5 7 6 3 1 2 4 5 6 8 6 4 4 4 4 3 3 4 6 9 13 14 12 11 11 8 6 6 6 7 7 5 4 4 4 4 4 6 6 5 6 6
6 7 8 8 6 4 4 4 5 7 9 7 5 4 5 4 4 4 4 6 9 12 14 14 13 11 9 7 6 6 7 7 6 5 6 7 6 6 6 6 6 6 6
7 8 9 9 8 7 6 6 6 6 7 6 6 5 6 6 6 6 6 6 8 11 14 15 14 12 10 8 7 7 9 9 8 7 9 10 9 8 8 8 8 7 7
8 9 9 9 9 10 8 6 6 4 4 5 6 6 7 7 8 7 7 7 9 11 14 15 14 12 10 9 9 9 11 12 11 10 10 11 10 9 10 10 9 7 6
9 9 9 10 11 11 9 6 5 5 5 5 6 7 8 8 9 8 7 7 10 14 16 16 14 12 11 13 14 14 14 16 15 13 12 12 11 9 10 10 9 7 5
10 10 10 11 12 12 10 7 6 8 9 6 5 6 8 8 9 9 9 9 11 16 18 17 15 12 11 14 18 19 20 20 18 16 15 15 13 11 10 10 9 7 6
12 13 13 13 14 14 13 11 11 11 11 10 8 7 8 8 9 10 12 12 12 14 16 16 15 13 13 14 17 19 21 21 18 17 16 16 14 12 11 11 10 8 8
14 16 17 16 15 16 16 17 16 15 14 13 13 13 12 12 12 11 13 13 12 13 14 15 15 15 16 16 16 17 18 19 18 16 14 13 12 12 11 9 8 7 8
15 16 17 17 16 16 19 21 21 20 18 17 18 18 18 18 16 15 14 12 12 13 14 13 13 15 18 18 18 17 16 16 16 13 10 9 9 9 7 6 6 6 7
17 16 17 19 18 18 19 21 23 24 23 22 21 21 22 22 20 18 17 14 13 15 15 13 14 16 18 19 18 15 13 13 12 9 5 4 5 4 4 4 5 6 6
20 20 20 22 23 22 20 19 21 25 26 24 23 23 24 25 24 23 22 20 18 18 17 16 17 19 19 17 14 10 9 8 6 3 2 1 1 1 1 1 2 3 3
24 24 26 27 26 24 22 21 21 24 25 24 23 23 24 27 29 28 27 25 21 20 20 19 20 21 19 14 9 7 6 4 2 0 0 0 0 0 0 0 0 0 0
24 25 28 30 27 25 25 24 24 25 25 24 24 24 25 27 29 30 29 26 22 22 22 21 20 21 19 13 7 5 4 2 0 0 0 0 0 1 1 0 0 0 0
20 23 28 30 30 27 26 27 26 26 26 26 25 25 26 26 28 29 29 28 25 23 24 23 22 22 19 14 9 6 4 2 1 0 0 0 0 0 1 1 0 0 1
21 24 27 30 32 31 29 29 29 28 27 27 26 26 26 26 27 28 29 30 27 24 23 24 24 23 18 12 8 7 6 4 2 1 0 0 0 0 0 0 0 0 1
28 29 29 31 34 33 31 31 31 31 29 27 25 25 25 25 25 26 27 29 29 26 24 24 24 22 16 10 6 6 7 6 4 2 1 0 0 0 0 0 0 0 1
34 34 32 32 34 34 32 31 31 31 31 28 26 24 24 24 25 27 28 29 29 27 23 22 21 19 15 11 8 8 7 7 6 4 2 1 0 0 0 0 0 0 0
36 36 35 34 34 34 33 32 30 30 30 29 28 26 25 26 26 27 28 28 26 24 22 19 17 16 14 14 13 10 8 7 6 4 2 1 0 0 0 0 0 0 0
35 36 35 33 33 33 33 31 29 27 27 28 29 29 27 27 26 26 25 24 23 22 20 16 13 14 14 14 14 11 9 9 7 4 2 0 0 0 0 0 0 0 0
32 33 33 32 31 30 28 26 24 24 25 26 28 28 27 25 23 21 20 20 20 20 19 15 11 12 13 13 12 11 11 11 8 5 3 2 1 1 1 0 0 0 0
30 32 32 30 28 25 22 21 21 21 24 26 25 24 24 22 18 15 15 16 16 16 16 12 9 9 11 11 11 11 12 11 8 6 5 4 3 2 1 0 0 0 0
32 32 31 28 26 23 19 18 19 21 24 26 23 21 20 17 14 12 11 11 12 13 12 9 7 8 9 9 10 10 11 10 8 6 4 4 3 2 1 0 0 0 0
34 32 29 27 25 21 15 14 16 20 24 25 22 20 17 13 11 12 11 9 10 10 9 7 8 9 9 10 10 11 11 11 8 6 4 4 3 1 0 0 0 0 0
33 31 29 25 21 16 11 9 12 18 23 23 21 19 17 14 10 10 10 11 12 11 8 7 8 9 9 9 10 11 12 11 10 8 6 5 3 2 0 0 0 0 0
33 31 28 23 18 14 9 6 9 15 20 21 20 19 18 15 10 8 10 12 13 12 10 7 7 7 7 7 8 10 12 12 11 9 7 5 4 3 2 2 1 0 0
35 32 27 22 17 15 10 6 7 14 19 21 19 18 17 15 10 7 9 12 13 13 11 8 5 3 4 4 5 8 12 13 12 11 8 5 4 3 3 4 2 1 0

GEFSMA_con_probscp_372.txt.gz
Probability
3 3 3 3 3 5 4 2 0 0 1 2 2 3 3 3 2 1 1 2 4 6 7 7 7 8 9 9 7 5 4 3 2 2 4 5 5 4 4 3 2 2 2
3 3 3 2 2 3 3 1 0 0 0 1 1 2 3 3 2 1 0 1 1 3 4 6 6 7 7 7 7 7 6 6 5 4 4 6 6 5 4 2 1 1 1
3 3 3 1 1 1 1 0 0 0 0 0 0 1 1 2 2 1 1 1 0 1 3 5 6 7 7 6 6 6 7 8 8 7 6 7 7 7 4 2 0 0 0
2 2 2 1 0 0 0 0 0 0 0 0 0 0 1 2 2 2 2 2 1 1 4 7 9 10 9 7 5 5 6 7 8 7 7 8 7 7 5 3 1 0 0
1 1 1 1 1 1 1 0 0 0 0 0 1 1 0 1 3 3 4 3 2 2 5 9 12 13 12 9 7 5 4 5 6 6 7 8 7 7 7 5 1 0 0
0 1 1 2 2 2 1 0 0 0 0 0 1 1 0 1 2 3 4 4 3 3 5 7 9 10 10 10 9 7 5 5 6 7 8 8 8 8 9 7 3 1 1
1 2 2 2 2 1 0 0 0 0 0 0 1 1 0 0 1 2 3 4 3 3 4 4 3 4 6 8 9 8 5 5 7 9 10 9 9 8 9 8 4 2 2
3 3 3 2 1 0 0 0 1 1 2 2 2 2 2 1 0 1 2 3 2 2 3 3 1 1 2 4 4 5 5 6 8 9 9 10 9 7 6 5 3 2 2
4 5 5 4 2 2 2 1 2 4 6 6 6 6 5 4 1 0 1 2 1 1 1 1 0 0 1 1 2 4 6 7 8 8 7 7 6 4 2 2 2 1 1
6 6 7 6 6 5 4 4 4 7 9 9 9 9 9 7 3 1 0 1 1 0 0 0 0 0 1 1 2 4 7 9 9 8 6 3 2 1 1 1 1 1 1
5 5 6 6 7 7 6 6 7 9 10 10 10 11 10 8 5 2 1 1 0 0 0 0 0 1 2 2 3 5 7 7 7 5 3 1 0 0 1 1 0 0 0
4 5 4 5 6 8 8 9 10 11 10 10 11 12 12 10 7 5 4 3 2 2 1 0 0 1 2 2 3 5 5 4 2 1 1 0 0 0 1 1 1 0 0
6 6 6 7 9 10 10 11 12 12 12 12 12 13 14 13 11 10 9 8 6 3 2 1 1 1 2 1 2 4 3 1 0 0 0 0 0 0 1 1 1 0 0
7 7 9 11 12 11 11 12 13 13 14 14 14 14 15 15 15 14 14 12 9 6 4 2 1 1 1 1 2 3 2 1 0 0 0 0 0 0 0 0 0 0 0
8 8 9 11 11 9 9 10 11 13 15 15 15 16 16 15 15 15 15 13 10 8 6 4 2 0 0 1 2 3 3 1 0 0 0 0 0 0 0 0 0 0 0
10 10 10 9 8 7 7 7 8 11 13 14 15 16 15 14 13 14 13 11 10 8 8 6 2 0 0 0 1 2 3 2 1 0 0 0 0 0 0 0 0 0 0
12 11 11 10 9 8 7 7 8 10 11 11 12 12 11 11 12 12 11 9 8 8 9 7 3 1 0 0 0 1 2 2 1 1 1 0 0 0 0 0 0 0 0
10 10 11 12 11 10 9 10 10 10 9 9 7 7 6 7 9 9 9 8 8 8 8 6 4 1 0 0 0 0 1 1 1 1 0 0 0 0 0 0 0 0 0
8 9 11 12 12 12 12 12 11 11 10 9 8 7 6 5 6 6 7 7 7 7 6 5 4 2 1 0 0 0 0 0 0 0 0 0 0 0 0 0 0 0 0
9 9 10 10 11 12 13 12 11 10 10 11 11 11 9 7 7 6 5 4 5 5 5 5 4 3 2 1 0 0 0 0 0 0 0 0 0 0 0 0 0 0 0
9 9 9 9 9 12 13 12 11 10 10 11 11 11 10 10 10 7 4 3 3 4 5 5 5 3 3 2 1 0 0 0 0 0 0 0 0 0 0 0 0 0 0
9 10 10 9 10 12 13 11 10 10 11 10 9 8 7 9 10 7 4 2 1 2 4 5 5 4 3 3 2 1 0 0 0 0 0 0 0 0 0 0 0 0 0
9 10 11 10 9 10 11 8 7 9 10 10 8 5 5 8 9 7 4 1 0 1 1 3 4 4 4 3 3 2 1 0 0 0 0 0 0 0 0 0 0 0 0
11 11 12 11 10 9 7 5 5 6 8 9 8 6 6 7 8 7 4 2 1 0 0 1 2 4 4 3 3 3 2 1 1 0 0 0 0 0 0 0 0 0 0
11 12 13 13 12 9 6 4 4 6 7 8 8 7 6 6 6 4 3 2 2 1 0 0 0 1 1 1 1 2 3 2 1 0 0 0 0 0 0 0 0 0 0
11 12 13 14 13 10 6 4 4 6 7 8 8 7 7 6 5 2 1 2 2 2 1 0 0 0 0 0 0 1 3 3 1 0 0 0 0 0 0 0 0 0 0

GEFSMA_con_probscp_378.txt.gz
Probability
0 1 3 3 3 3 3 2 1 0 0 0 0 0 0 0 0 0 1 2 4 4 4 4 5 5 4 3 2 2 3 5 6 6 6 5 3 3 4 4 3 3 3
1 2 3 3 3 3 3 2 1 0 0 0 0 0 0 0 0 0 0 1 2 2 2 3 3 3 2 1 1 1 3 4 4 5 6 6 6 6 6 4 3 3 4
0 1 2 3 3 3 3 2 1 0 0 0 0 0 0 0 0 0 0 0 0 1 1 2 2 2 1 0 0 1 3 4 4 5 6 7 7 7 7 6 4 4 4
0 0 1 2 3 3 3 2 1 0 0 0 0 0 0 0 0 0 0 0 0 0 1 2 3 4 2 1 1 2 4 5 5 5 6 6 7 7 7 8 6 4 3
0 0 0 1 1 2 1 1 0 0 0 0 0 0 0 0 0 0 0 0 0 0 0 2 4 6 5 3 3 4 4 5 5 5 5 6 7 8 8 9 9 7 5
0 0 0 0 0 0 0 0 0 0 0 0 0 0 0 0 0 0 0 0 0 0 0 1 3 5 5 5 5 5 5 6 7 7 7 7 8 10 11 11 11 10 8
1 1 0 0 0 0 0 0 0 0 0 0 0 0 0 0 0 0 0 0 0 0 0 0 2 3 3 3 5 6 7 8 10 11 11 11 11 12 12 11 11 10 7
2 1 0 0 0 0 0 1 1 1 1 1 1 1 1 1 0 0 0 0 0 0 0 0 1 1 1 1 2 5 7 8 11 13 14 13 12 10 10 10 9 8 7
3 2 1 1 0 0 0 2 3 3 2 2 3 3 3 2 1 1 0 0 0 0 0 0 0 0 0 0 0 2 4 6 8 11 12 12 11 8 8 8 7 6 6
2 2 2 1 0 0 0 2 3 3 3 3 4 4 5 5 4 2 1 0 0 0 1 0 0 0 0 0 0 0 1 2 3 6 9 10 9 7 6 6 5 3 2
2 2 1 1 0 1 1 2 3 3 4 4 4 5 6 6 6 5 2 1 0 0 1 1 1 1 0 0 0 0 0 0 0 2 5 7 6 6 6 6 5 2 0
2 2 2 1 1 3 3 3 3 5 6 6 6 6 6 7 7 7 5 4 2 2 2 2 2 2 1 2 2 1 1 0 0 1 3 4 4 5 6 7 5 3 1
2 2 3 3 3 5 5 4 4 6 6 5 5 6 7 8 9 10 9 8 6 4 3 3 3 2 2 4 4 3 2 1 1 1 2 3 3 3 4 4 3 3 2
1 1 2 3 4 6 6 5 5 5 4 3 3 5 7 8 9 11 12 11 10 7 4 3 2 1 2 3 3 2 3 2 1 1 1 1 2 2 1 1 2 2 1
1 0 1 3 5 6 6 5 4 4 4 4 3 5 7 8 9 10 11 12 12 10 8 6 4 2 2 2 1 1 1 1 0 0 0 0 1 1 0 0 1 1 0
0 0 2 4 7 7 5 3 3 4 4 5 5 5 6 7 8 8 8 10 12 11 11 9 6 5 4 3 2 1 1 0 0 0 0 0 0 0 0 0 0 0 0
1 1 3 5 6 6 4 2 2 4 5 6 6 6 6 6 6 5 6 8 9 9 9 10 8 6 5 5 5 3 2 1 0 0 0 0 0 0 0 0 0 0 0
2 3 4 4 4 4 4 3 3 5 7 8 7 7 6 6 5 5 6 7 7 7 7 8 8 6 5 5 5 4 3 2 1 0 0 0 0 0 0 0 0 0 0
1 2 3 3 2 3 5 5 6 7 8 9 9 8 7 6 6 7 8 7 7 7 7 7 8 7 5 4 4 3 2 1 1 0 0 0 0 0 0 0 0 0 0
0 1 1 1 1 2 5 7 8 8 9 10 10 10 9 8 8 9 10 9 8 7 7 7 7 6 4 3 3 3 2 1 0 0 0 0 0 0 0 0 0 0 0
1 1 0 0 0 1 4 6 8 9 10 11 11 11 10 9 9 9 9 9 9 7 6 6 5 5 4 4 4 3 3 2 1 0 0 0 0 0 0 0 0 0 0
2 2 1 1 0 1 3 4 5 8 10 12 12 11 9 9 8 7 6 7 6 6 6 6 6 6 5 4 4 4 3 3 2 0 0 0 0 0 0 0 0 0 0
3 3 3 2 2 2 3 3 4 7 9 11 10 10 9 8 7 7 6 5 5 4 4 6 7 7 5 4 3 3 3 2 1 0 1 1 1 0 0 0 0 0 0
4 4 4 4 3 4 4 4 4 6 9 9 7 7 8 7 6 7 6 6 5 4 4 4 6 5 4 3 1 1 2 1 0 0 1 2 2 1 0 0 0 0 0
6 7 7 5 5 5 6 5 4 6 8 7 5 4 5 4 3 4 5 6 6 5 4 4 4 3 2 1 0 0 0 0 1 1 2 3 3 2 1 1 0 0 0
8 9 8 7 6 6 6 5 4 6 8 6 4 3 2 1 1 2 5 6 6 6 6 5 3 1 0 0 0 0 0 0 1 2 2 3 4 3 2 2 1 0 0